MST,Max TemperatureF,Mean TemperatureF,Min TemperatureF,Max Dew PointF,MeanDew PointF,Min DewpointF,Max Humidity, Mean Humidity, Min Humidity, Max Sea Level PressureIn, Mean Sea Level PressureIn, Min Sea Level PressureIn, Max VisibilityMiles, Mean VisibilityMiles, Min VisibilityMiles, Max Wind SpeedMPH, Mean Wind SpeedMPH, Max Gust SpeedMPH,PrecipitationIn, CloudCover, Events, WindDirDegrees
2013-1-1,28,14,1,16,4,-4,93,78,55,30.16,30.09,30.04,10,7,0,10,2,,0.00,2,,275
2013-1-2,30,20,10,14,9,1,85,64,44,30.29,30.18,30.11,10,10,7,30,8,34,0.00,5,,307
2013-1-3,35,18,0,12,3,-8,79,62,35,30.31,30.24,30.18,10,10,6,9,3,,0.00,1,,260
2013-1-4,41,21,1,19,7,-4,85,65,36,30.20,30.11,30.02,10,10,10,9,1,,0.00,0,,294
2013-1-5,39,24,8,18,9,1,79,61,36,30.28,30.20,30.05,10,10,9,13,3,,0.00,0,,262
2013-1-6,39,20,1,16,7,-6,85,66,36,30.26,30.09,29.93,10,10,5,7,1,,0.00,0,,313
2013-1-7,48,32,17,19,15,9,80,60,27,30.01,29.92,29.80,10,10,5,9,1,,0.00,0,,131
2013-1-8,53,35,17,25,18,10,86,63,28,30.21,29.94,29.79,10,10,5,13,2,,0.00,1,,129
2013-1-9,55,34,14,27,16,9,86,62,31,30.32,30.17,30.01,10,10,10,10,2,,0.00,0,,4
2013-1-10,37,24,12,21,15,7,85,70,52,30.00,29.70,29.44,10,10,7,9,2,,0.00,0,,283
2013-1-11,33,18,1,25,10,-6,86,74,63,29.82,29.48,29.29,10,7,0,31,7,38,0.00,3,,15
2013-1-12,15,3,-9,7,-4,-17,85,71,58,30.03,29.95,29.82,10,10,7,9,3,,0.00,4,,27
2013-1-13,14,2,-9,3,-6,-18,92,73,57,30.12,30.07,30.01,10,10,6,6,0,,0.00,3,,55
2013-1-14,15,1,-13,5,-5,-18,92,73,58,30.17,30.11,30.06,10,9,5,0,0,,0.00,3,,-1
2013-1-15,28,7,-14,18,1,-22,92,70,51,30.12,30.09,30.04,10,10,6,10,3,,0.00,6,,304
2013-1-16,48,32,17,28,19,9,80,57,42,30.37,30.20,30.10,10,10,10,17,6,21,0.00,1,,265
2013-1-17,46,28,10,25,15,5,85,68,37,30.47,30.35,30.20,10,10,10,8,3,,0.00,0,,335
2013-1-18,57,34,10,25,14,5,85,54,17,30.20,30.10,30.03,10,10,8,13,4,,0.00,0,,240
2013-1-19,55,40,24,18,14,9,69,37,19,30.25,30.16,30.04,10,10,8,24,11,22,0.00,0,,344
2013-1-20,44,30,15,21,14,9,79,58,31,30.28,30.21,30.13,10,10,7,23,7,29,0.00,0,,39
2013-1-21,53,32,12,21,13,7,85,62,22,30.23,30.13,30.04,10,10,6,8,4,,0.00,0,,285
2013-1-22,57,36,14,19,12,7,79,53,16,30.16,30.09,30.02,10,10,3,8,3,,0.00,0,,15
2013-1-23,53,35,17,19,15,10,74,50,19,30.17,30.13,30.10,10,10,3,9,4,,0.00,0,,48
2013-1-24,57,37,17,27,19,10,86,52,21,30.15,30.05,29.95,10,10,3,14,5,18,0.00,2,,353
2013-1-25,57,38,19,30,22,16,86,62,31,30.18,30.11,30.06,10,10,5,9,4,,0.00,5,,32
2013-1-26,48,34,19,30,23,12,87,66,46,30.06,29.93,29.76,10,9,2,9,2,,0.00,8,,313
2013-1-27,57,42,26,39,31,21,100,72,41,29.78,29.73,29.69,10,8,2,12,3,,0.00,8,,182
2013-1-28,50,34,19,34,22,16,93,76,47,29.75,29.67,29.57,10,9,1,29,7,38,0.00,7,,20
2013-1-29,35,26,15,21,15,7,86,67,41,29.94,29.76,29.67,10,9,2,21,11,24,0.00,4,,348
2013-1-30,33,20,6,19,10,1,85,67,48,29.93,29.86,29.81,10,10,10,9,4,,0.00,5,,113
2013-1-31,39,30,19,23,19,16,86,70,49,30.14,30.05,29.86,10,10,10,12,6,,0.00,3,,123